Terminal Aerodrome Forecast
Issued by NWS Wilmington, OH

Current Version | Previous Version | Graphics & Text | Print | Product List | Glossary On
Versions: 1 2 3 4 5 6 7 8 9 10 11 12 13 14 15 16 17 18 19 20 21 22
056
FTUS41 KILN 231044 AAD
TAFILN
TAF AMD
KILN 231044Z 2311/2406 00000KT 3/4SM BR SCT250
     FM231300 23005KT P6SM FEW040 SCT250
     FM240100 00000KT P6SM SCT250=

USA.gov is the U.S. government's official web portal to all federal, state and local government web resources and services.